Tracking 23757 objects as of 26-Oct-2021
HD Live streaming from Space Station
objects crossing your sky now

COSMOS 1375 DEB

Track COSMOS 1375 DEB now!
10-day predictions


NORAD ID: 16202
Int'l Code: 1982-055D
Perigee: 855.6 km
Apogee: 968.7 km
Inclination: 65.8 °
Period: 103.1 minutes
Semi major axis: 7283 km
RCS: 0.038 m2 (small)
Launch date: June 6, 1982
Source: Commonwealth of Independent States (former USSR) (CIS)
Launch site: PLESETSK MISSILE AND SPACE COMPLEX (PKMTR)

Note: This is SATELLITE DEBRIS
aabbcc
Your satellite tracking list
Your tracking list is empty




NASA's NSSDC Master Catalog

Two Line Element Set (TLE):
1 16202U 82055D   21299.41525453  .00000087  00000-0  12048-3 0  9996
2 16202  65.8300 334.4910 0077629 140.7661 324.8975 13.96775691   984
Source of the keplerian elements: AFSPC